Simultaneous Nadir Overpasses (SNOs) Predictions

Prediction of SNOs between METOP-A and TERRA Satellite Orbit:

Table of predicted SNOs for the next 14.0 days since TLE Epoch: 11/9/2019
Index Date (METOP-A) Time (METOP-A) Lat,Lon (METOP-A) SZA (METOP-A ) Date (TERRA) Time (TERRA) Lat,Lon (TERRA) SZA (TERRA ) Distance(km) Time Diff (sec)
1 11/09/2019 03:22:10 81.44, 179.32 101.57 11/09/2019 03:22:35 81.43, 179.25 101.57 1.81 25
2 11/09/2019 04:12:50 -81.44, -13.16 78.40 11/09/2019 04:12:02 -81.43, -13.16 78.43 1.22 48
3 11/11/2019 22:56:33 81.44,-114.04 102.37 11/11/2019 22:56:49 81.45,-113.97 102.39 1.39 16
4 11/11/2019 23:47:13 -81.44, 53.50 77.60 11/11/2019 23:46:16 -81.45, 53.65 77.61 2.69 57
5 11/14/2019 18:30:56 81.44, -47.82 103.09 11/14/2019 18:31:03 81.44, -47.62 103.11 3.34 7
6 11/14/2019 19:21:36 -81.44, 119.75 76.88 11/14/2019 19:20:31 -81.43, 119.64 76.94 2.17 65
7 11/17/2019 13:14:39 -81.44,-148.93 76.26 11/17/2019 13:15:52 -81.44,-148.92 76.23 0.51 73
8 11/17/2019 14:05:19 81.44, 18.78 103.80 11/17/2019 14:05:18 81.44, 18.71 103.79 1.13 1
9 11/17/2019 14:55:59 -81.43,-173.63 76.17 11/17/2019 14:54:45 -81.44,-173.61 76.21 0.78 74
10 11/20/2019 08:49:02 -81.44, -82.32 75.60 11/20/2019 08:50:06 -81.45, -82.20 75.55 2.30 64




NCC Satellite Simultaneous Nadir Overpasses (SNOs) Prediction Service
